Tracking 29040 objects as of 16-Jun-2024
HD Live streaming from Space Station
objects crossing your sky now

SL-14 DEB

Track SL-14 DEB now!
10-day predictions


NORAD ID: 26015
Int'l Code: 1991-068AA
Perigee: 1,367.3 km
Apogee: 1,474.3 km
Inclination: 82.5 °
Period: 114.1 minutes
Semi major axis: 7791 km
RCS: 0.084 m2 (small)
Launch date: September 28, 1991
Source: Commonwealth of Independent States (former USSR) (CIS)
Launch site: PLESETSK MISSILE AND SPACE COMPLEX (PKMTR)

Note: This is SATELLITE DEBRIS
Your satellite tracking list
Your tracking list is empty




NASA's NSSDC Master Catalog

Two Line Element Set (TLE):
1 26015U 91068AA  24168.63455361  .00000049  00000-0  21412-3 0  9998
2 26015  82.4808  28.8854 0068697  22.3544  33.9865 12.62256093505603
Source of the keplerian elements: AFSPC